Flag for U.S.A. Weather past 2 weeks in Mesquite, Texas, U.S.A.

Now
51 °F

Clear.


Feels Like: 51 °F
Forecast: 50 / 73 °F
Wind: No wind

Location: Mesquite Metro Airport

Current Time: Apr 21, 2015 at 2:42:06 AM

Latest Report: Apr 21, 2015 at 2:15 AM


Visibility: 10 mi

Pressure: 30.02 "Hg

Humidity: 87%

Dew point: 47 °F

Location of MesquiteLocation

Historic Weather in Mesquite — Graph

°F

Mesquite temperature yesterday

Maximum temperature yesterday: 68 °F (at 3:50 PM)
Minimum temperature yesterday: 48 °F (at 6:47 AM)
Average temperature yesterday: 57 °F

Past Weeks' High & Low Weather Summary

 TemperatureHumidityPressure
High82 °F (Apr 6, 3:50 PM)100% (Apr 6, 6:47 AM)30.22 "Hg (Apr 6, 6:47 AM)
Low48 °F (Apr 20, 6:47 AM)32% (Apr 20, 11:47 AM)29.72 "Hg (Apr 19, 12:50 PM)
Average65 °F78%29.95 "Hg
* Reported Apr 6 1:15 AM — Apr 21 1:15 AM, Mesquite, Weather by CustomWeather, © 2015

Note: Actual official high and low records may vary slightly from our data, if they occured in-between our weather recording intervals... More about our weather records

Advertising

Mesquite weather history for previous 24 hours

 ConditionsComfort  
Time TempWeatherWind HumidityBarometerVisibility
1:15 AM
Tue, Apr 21
53 °FClear.No wind80%30.03 "Hg10 mi
12:55 AM52 °FClear.3 mph85%30.03 "Hg10 mi
12:35 AM53 °FClear.No wind81%30.03 "Hg10 mi
12:15 AM54 °FClear.No wind75%30.03 "Hg10 mi
11:55 PM
Mon, Apr 20
54 °FClear.No wind76%30.03 "Hg10 mi
11:35 PM54 °FClear.No wind75%30.03 "Hg10 mi
11:15 PM54 °FClear.No wind73%30.02 "Hg10 mi
10:15 PM57 °FClear.No wind74%30.01 "Hg10 mi
9:55 PM58 °FClear.No wind67%30.00 "Hg10 mi
9:15 PM58 °FClear.No wind57%29.99 "Hg10 mi
8:55 PM62 °FSunny.No wind46%29.98 "Hg10 mi
8:15 PM65 °FSunny.No wind39%29.97 "Hg10 mi
7:50 PM64 °FSunny.No wind46%29.96 "Hg10 mi
6:50 PM66 °FSunny.No wind35%29.95 "Hg10 mi
5:50 PM68 °FSunny.5 mph33%29.96 "Hg10 mi
4:50 PM68 °FSunny.5 mph33%29.96 "Hg10 mi
3:50 PM68 °FSunny.6 mph33%29.97 "Hg10 mi
2:50 PM66 °FSunny.6 mph32%30.01 "Hg10 mi
1:50 PM66 °FSunny.9 mph32%30.02 "Hg10 mi
12:47 PM64 °FSunny.7 mph34%30.03 "Hg10 mi
11:47 AM64 °FSunny.12 mph32%30.05 "Hg10 mi
10:50 AM63 °FSunny.10 mph39%30.05 "Hg10 mi
9:50 AM61 °FSunny.10 mph48%30.05 "Hg10 mi
8:50 AM55 °FSunny.No wind67%30.02 "Hg10 mi
7:47 AM50 °FPassing clouds.No wind76%30.02 "Hg10 mi
6:47 AM48 °FClear.3 mph71%29.98 "Hg10 mi
6:15 AM50 °FClear.No wind68%29.99 "Hg10 mi
5:55 AM49 °FClear.No wind71%29.99 "Hg10 mi
5:35 AM49 °FClear.No wind69%29.98 "Hg10 mi
5:15 AM50 °FClear.No wind68%29.97 "Hg10 mi
4:55 AM49 °FClear.5 mph70%29.97 "Hg10 mi
4:35 AM50 °FClear.6 mph68%29.98 "Hg10 mi
4:15 AM51 °FClear.5 mph66%29.97 "Hg10 mi
3:55 AM52 °FClear.7 mph63%29.96 "Hg10 mi
3:35 AM53 °FClear.9 mph61%29.96 "Hg10 mi
3:15 AM53 °FClear.9 mph62%29.96 "Hg10 mi
2:55 AM54 °FClear.10 mph60%29.96 "Hg10 mi
2:35 AM54 °FClear.13 mph59%29.96 "Hg10 mi
2:15 AM54 °FClear.12 mph60%29.96 "Hg10 mi
Weather by CustomWeather, © 2015

See weather overviewHow to use our weather pages